Date,TemperatureHighF,TemperatureAvgF,TemperatureLowF,DewpointHighF,DewpointAvgF,DewpointLowF,HumidityHigh,HumidityAvg,HumidityLow,PressureMaxIn,PressureMinIn,WindSpeedMaxMPH,WindSpeedAvgMPH,GustSpeedMaxMPH,PrecipitationSumIn
2013-1-1,40,33,21,22,11,-3,59,41,21,29.87,29.66,21,6,21,0.00
2013-1-2,34,22,14,8,-1,-7,47,37,25,30.05,29.84,20,5,20,0.00
2013-1-3,31,16,6,3,-11,-19,46,29,16,30.08,29.94,11,3,11,0.00
2013-1-4,43,31,21,19,14,3,59,49,30,29.93,29.75,13,3,13,0.00
2013-1-5,47,34,23,20,14,4,66,46,21,30.22,29.79,16,3,16,0.00
2013-1-6,49,34,25,26,21,15,77,59,34,30.18,29.88,16,2,16,0.00
2013-1-7,45,33,26,28,21,10,80,64,24,30.36,29.89,14,2,14,0.00
2013-1-8,51,38,25,27,23,18,82,57,31,30.33,30.20,14,3,14,0.00
2013-1-9,47,38,24,33,26,18,83,64,42,30.35,29.92,11,2,11,0.00
2013-1-10,52,44,38,31,21,11,60,41,19,30.48,29.98,14,6,14,0.00
2013-1-11,42,36,26,34,26,15,88,67,45,30.46,30.17,8,1,8,0.17
2013-1-12,46,42,38,42,39,34,93,90,82,30.18,30.07,5,1,5,0.01
2013-1-13,53,48,43,49,45,41,95,90,82,30.10,29.93,11,2,11,0.01
2013-1-14,68,54,44,52,40,19,91,64,21,30.20,29.79,16,4,16,0.00
2013-1-15,44,40,35,24,22,18,54,47,41,30.26,30.15,8,2,8,0.00
2013-1-16,37,34,32,31,28,19,88,78,48,30.19,29.75,8,1,8,0.38
2013-1-17,46,37,31,31,24,7,88,61,35,30.04,29.77,16,4,16,0.20
2013-1-18,31,24,20,8,-10,-15,37,21,15,30.42,30.00,17,5,17,0.00
2013-1-19,54,39,22,30,17,-7,65,42,20,30.35,29.83,21,5,21,0.00
2013-1-20,59,44,30,31,19,-3,63,40,18,29.87,29.47,21,7,21,0.01
2013-1-21,33,27,22,18,-1,-11,73,33,18,30.05,29.73,14,4,14,0.00
2013-1-22,30,22,14,17,-1,-18,75,41,16,30.03,29.69,19,6,19,0.00
2013-1-23,21,13,8,-7,-19,-26,42,22,17,30.10,30.01,23,6,23,0.00
2013-1-24,24,12,4,-12,-21,-27,24,20,16,30.17,30.00,22,7,22,0.00
2013-1-25,28,18,9,7,-16,-26,63,22,15,30.26,30.00,14,4,14,0.00
2013-1-26,30,19,13,8,-6,-20,65,36,16,30.18,29.94,14,5,14,0.01
2013-1-27,36,22,13,-5,-10,-16,41,25,15,30.42,30.17,17,5,17,0.00
2013-1-28,34,25,16,25,3,-16,83,44,17,30.40,29.95,8,1,8,0.00
2013-1-29,36,32,28,29,25,22,84,76,63,30.14,29.95,4,0,4,0.17
2013-1-30,62,51,34,56,46,29,94,85,73,30.11,29.41,19,5,19,0.14
2013-1-31,62,50,33,58,32,0,87,56,18,29.53,28.91,28,10,28,0.71